Overview Statistics Trail Chart Weather Telemetry Raw packets
 

This is the latest recevied weather packets stored in our database for station/object K7PMV-13. If no packets are shown the sender has not sent any weather packets the latest 10 day(s).

<< 59 60 61 62 63 64 65 >>
Time Temp. Humidity Pressure Rain* Wind** Luminosity Snow
1777257477 21.67° C 32% 1007.1 hPa 0 mm - 0 W/m² -
1777257167 21.67° C 32% 1007.1 hPa 0 mm - 0 W/m² -
1777256857 21.67° C 32% 1007 hPa 0 mm - 0 W/m² -
1777256555 22.22° C 32% 1006.9 hPa 0 mm - 0 W/m² -
1777256251 22.22° C 31% 1006.8 hPa 0 mm - 0 W/m² -
1777255766 22.22° C 31% 1006.7 hPa 0 mm - 0 W/m² -
1777255464 22.78° C 31% 1006.6 hPa 0 mm - 5 W/m² -
1777255154 22.78° C 31% 1006.6 hPa 0 mm - 9 W/m² -
1777254852 22.78° C 31% 1006.6 hPa 0 mm - 12 W/m² -
1777254549 22.78° C 31% 1006.5 hPa 0 mm - 16 W/m² -
1777254247 23.33° C 30% 1006.4 hPa 0 mm - 19 W/m² -
1777253944 23.33° C 30% 1006.4 hPa 0 mm - 23 W/m² -
1777253634 23.33° C 30% 1006.3 hPa 0 mm - 25 W/m² -
1777253331 23.33° C 30% 1006.2 hPa 0 mm - 28 W/m² -
1777253028 23.89° C 30% 1006.2 hPa 0 mm - 32 W/m² -
1777252709 23.89° C 31% 1006.2 hPa 0 mm - 37 W/m² -
1777252406 23.89° C 30% 1006.2 hPa 0 mm - 40 W/m² -
1777252104 23.89° C 30% 1006.1 hPa 0 mm - 47 W/m² -
1777251494 24.44° C 29% 1006 hPa 0 mm - 54 W/m² -
1777251191 24.44° C 28% 1006.2 hPa 0 mm - 51 W/m² -
1777250889 25° C 28% 1006.2 hPa 0 mm - 56 W/m² -
1777250583 25° C 28% 1006.1 hPa 0 mm - 86 W/m² -
1777250281 25° C 27% 1006.2 hPa 0 mm - 176 W/m² -
1777249978 25° C 28% 1006.1 hPa 0 mm - 251 W/m² -
1777249675 25.56° C 28% 1005.9 hPa 0 mm - 274 W/m² -

* Rain latest hour (hover to see other rain measurements)
** Current wind speed in m/s (hover to see current wind gust speed)